Find WorldView Legion 6

NORAD ID: 62901 Int'l Des: 2025-025 Owner: MAXARI Country: US operational
LEOCIRCULAR

当前视图

正在加载3D地球...

About WorldView Legion 6

WorldView Legion 6 (NORAD 62901) is a satellite launched Feb 4, 2025 by MAXARI of US. It operates in LEO, CIRCULAR orbit with a mass of 700.00 kg.

即将过境

Passes for default location (London). Set your location on the main map for personalized predictions.

高度历史

Loading altitude history...

两行轨道根数

1 62901U 25025B 26194.09458909 .00001582 00000-0 95333-4 0 9991
2 62901 45.0016 71.6221 0010830 265.9500 94.0141 15.15680636 79561
Epoch: Jul 13, 2026 • Age: 28 hours

当前状态

高度 521.0 km
远地点 / 近地点 N/A
速度 7.61 km/s
星下点 -26.94°S, 4.26°E
发射日期 Feb 4, 2025
运行时间 1.4 years
类型 earth observation

技术详情

分类 Payload
质量 700.00 kg
干质量 630.00 kg
总质量 700.00 kg
长度 3.00 m
直径 2.00 m
跨度 5.00 m
形状 Box + panel
制造商 MAXSI
平台类型 Legion
阶段状态 In Orbit
所有者/国家 MAXARI/US

Most Searched